TimePDT,TemperatureF,Dew PointF,Humidity,Sea Level PressureIn,VisibilityMPH,Wind Direction,Wind SpeedMPH,Gust SpeedMPH,PrecipitationIn,Events,Conditions,WindDirDegrees,DateUTC
12:00 AM,51.8,50.0,94,29.71,8.0,East,8.1,-,N/A,,Overcast,80,2012-11-01 07:00:00
12:27 AM,51.8,-9999,N/A,-9999,8.0,East,9.2,-,N/A,,Light Drizzle,100,2012-11-01 07:27:00
1:00 AM,53.6,50.0,88,29.72,8.0,East,8.1,-,N/A,,Light Drizzle,80,2012-11-01 08:00:00
2:00 AM,53.6,50.0,88,29.72,8.0,East,4.6,-,N/A,,Light Drizzle,80,2012-11-01 09:00:00
3:00 AM,51.8,50.0,94,29.73,8.0,NNE,5.8,-,N/A,,Light Drizzle,30,2012-11-01 10:00:00
4:00 AM,53.6,50.0,88,29.73,8.0,East,9.2,-,N/A,,Light Drizzle,80,2012-11-01 11:00:00
5:00 AM,53,51,88,29.74,7,East,4.6,,,Rain,Light Drizzle,100,2012-11-01 12:00:00
5:00 AM,53.6,50.0,88,29.74,8.0,ESE,4.6,-,N/A,,Light Drizzle,110,2012-11-01 12:00:00
6:00 AM,53.6,50.0,88,29.75,8.0,East,8.1,-,N/A,,Light Drizzle,100,2012-11-01 13:00:00
6:35 AM,51.8,-9999,N/A,-9999,10.0,East,9.2,-,N/A,Rain,Light Rain Showers,90,2012-11-01 13:35:00
7:00 AM,51.8,50.0,94,29.76,10.0,East,9.2,-,N/A,Rain,Light Rain Showers,90,2012-11-01 14:00:00
8:00 AM,51.8,50.0,94,29.78,15.0,East,10.4,-,N/A,,Overcast,100,2012-11-01 15:00:00
9:00 AM,51.8,50.0,94,29.80,15.0,East,10.4,-,N/A,,Overcast,100,2012-11-01 16:00:00
10:00 AM,53.6,50.0,88,29.82,15.0,East,6.9,-,N/A,,Overcast,100,2012-11-01 17:00:00
11:00 AM,54,50,83,29.83,15,ESE,8.1,,,,Partly Cloudy,110,2012-11-01 18:00:00
11:00 AM,53.6,50.0,88,29.83,15.0,ESE,8.1,-,N/A,,Overcast,110,2012-11-01 18:00:00
11:44 AM,53.6,-9999,N/A,-9999,12.0,SE,9.2,-,N/A,Rain,Light Rain Showers,140,2012-11-01 18:44:00
11:56 AM,53.6,-9999,N/A,-9999,6.0,ESE,13.8,-,N/A,Rain,Light Rain Showers,110,2012-11-01 18:56:00
12:00 PM,53.6,50.0,88,29.86,5.0,East,10.4,-,N/A,Rain,Light Rain Showers,100,2012-11-01 19:00:00
12:04 PM,53.6,-9999,N/A,-9999,10.0,East,10.4,-,N/A,Rain,Light Rain Showers,90,2012-11-01 19:04:00
12:25 PM,53.6,-9999,N/A,-9999,15.0,East,5.8,-,N/A,,Overcast,80,2012-11-01 19:25:00
1:00 PM,57.2,51.8,82,29.86,15.0,East,6.9,-,N/A,,Mostly Cloudy,80,2012-11-01 20:00:00
2:00 PM,53.6,51.8,94,29.88,15.0,SE,8.1,19.6,N/A,Rain,Light Rain Showers,140,2012-11-01 21:00:00
2:45 PM,55.4,-9999,N/A,-9999,15.0,East,8.1,-,N/A,,Overcast,90,2012-11-01 21:45:00
3:00 PM,55.4,51.8,88,29.89,15.0,East,5.8,-,N/A,,Overcast,90,2012-11-01 22:00:00
3:29 PM,55.4,-9999,N/A,-9999,10.0,ESE,8.1,-,N/A,Rain,Light Rain Showers,120,2012-11-01 22:29:00
3:53 PM,53.6,-9999,N/A,-9999,12.0,East,8.1,-,N/A,,Overcast,90,2012-11-01 22:53:00
4:00 PM,53.6,51.8,94,29.90,12.0,East,8.1,-,N/A,,Overcast,90,2012-11-01 23:00:00
4:08 PM,53.6,-9999,N/A,-9999,12.0,East,8.1,-,N/A,,Overcast,90,2012-11-01 23:08:00
5:00 PM,54,51,88,29.91,15,East,9.2,,,,Partly Cloudy,100,2012-11-02 00:00:00
5:00 PM,53.6,51.8,94,29.91,15.0,East,8.1,-,N/A,,Overcast,100,2012-11-02 00:00:00
5:17 PM,53.6,-9999,N/A,-9999,15.0,ESE,9.2,-,N/A,Rain,Light Rain Showers,110,2012-11-02 00:17:00
6:00 PM,53.6,50.0,88,29.92,15.0,East,5.8,-,N/A,,Overcast,90,2012-11-02 01:00:00
7:00 PM,53.6,50.0,88,29.94,15.0,East,6.9,-,N/A,,Mostly Cloudy,90,2012-11-02 02:00:00
8:00 PM,53.6,50.0,88,29.95,15.0,East,5.8,-,N/A,,Mostly Cloudy,90,2012-11-02 03:00:00
9:00 PM,53.6,50.0,88,29.97,12.0,ESE,5.8,-,N/A,Rain,Light Rain,110,2012-11-02 04:00:00
9:38 PM,53.6,-9999,N/A,-9999,8.0,East,9.2,-,N/A,,Light Drizzle,90,2012-11-02 04:38:00
10:00 PM,53.6,50.0,88,29.98,8.0,East,9.2,-,N/A,,Overcast,90,2012-11-02 05:00:00
10:44 PM,53.6,-9999,N/A,-9999,8.0,ESE,6.9,-,N/A,Rain,Light Rain Showers,110,2012-11-02 05:44:00
11:00 PM,53,51,90,30.00,7,ESE,8.1,,,Rain,Light Rain Showers,110,2012-11-02 06:00:00
11:00 PM,53.6,51.8,94,30.00,8.0,East,8.1,-,N/A,Rain,Light Rain Showers,100,2012-11-02 06:00:00
11:41 PM,51.8,-9999,N/A,-9999,8.0,East,9.2,-,N/A,,Overcast,90,2012-11-02 06:41:00